Total_Precipitation_Accumulation
1.53 1.58 1.54 1.49 1.46 1.44 1.35 1.24 1.22 1.16 1.08 1.03 0.96 0.93 0.95 0.98 0.98 1.00 0.98 0.95 0.91 0.87 0.85 0.87 0.90 0.93 0.98 1.00 1.03 1.18 1.39 1.53 1.57 1.30 1.16 1.23 1.35 1.31 1.35 1.32 1.22 1.18 1.25
1.24 1.29 1.30 1.23 1.12 1.10 1.09 1.05 1.01 1.00 0.96 0.94 0.87 0.79 0.75 0.74 0.75 0.76 0.77 0.81 0.82 0.78 0.81 0.85 0.86 0.87 0.88 0.94 0.99 1.07 1.22 1.40 1.56 1.50 1.29 1.30 1.36 1.38 1.43 1.43 1.27 1.12 1.18
0.99 0.99 1.01 1.00 0.94 0.92 0.93 0.95 0.92 0.89 0.85 0.79 0.77 0.75 0.67 0.64 0.61 0.60 0.63 0.69 0.72 0.71 0.75 0.80 0.84 0.95 0.93 0.94 1.00 1.03 1.12 1.25 1.49 1.57 1.44 1.41 1.48 1.52 1.63 1.53 1.37 1.32 1.11
0.87 0.87 0.87 0.90 0.92 0.88 0.82 0.81 0.81 0.81 0.81 0.78 0.79 0.70 0.61 0.53 0.51 0.52 0.53 0.57 0.60 0.64 0.72 0.78 0.83 0.95 1.03 1.05 1.04 1.05 1.09 1.21 1.38 1.55 1.53 1.50 1.56 1.64 1.69 1.66 1.51 1.35 1.23
0.88 0.84 0.87 0.92 0.95 0.93 0.90 0.85 0.80 0.77 0.74 0.75 0.76 0.71 0.63 0.53 0.47 0.49 0.50 0.53 0.61 0.67 0.69 0.71 0.75 0.85 0.94 0.92 0.86 0.88 1.02 1.22 1.32 1.49 1.54 1.52 1.52 1.63 1.62 1.45 1.39 1.32 1.19
0.97 0.94 0.95 0.94 0.90 0.88 0.86 0.83 0.81 0.77 0.73 0.70 0.69 0.68 0.62 0.50 0.50 0.51 0.49 0.54 0.61 0.65 0.67 0.66 0.63 0.63 0.63 0.66 0.72 0.77 0.89 1.15 1.47 1.67 1.63 1.56 1.44 1.41 1.44 1.40 1.42 1.44 1.38
1.12 1.04 0.98 0.91 0.83 0.79 0.74 0.72 0.75 0.75 0.70 0.64 0.62 0.65 0.63 0.55 0.51 0.47 0.47 0.52 0.61 0.66 0.69 0.69 0.56 0.49 0.58 0.65 0.71 0.75 0.88 1.05 1.33 1.67 1.75 1.53 1.46 1.42 1.45 1.45 1.50 1.57 1.46
1.11 1.02 0.93 0.84 0.78 0.77 0.77 0.76 0.73 0.71 0.66 0.65 0.65 0.65 0.65 0.54 0.50 0.46 0.46 0.52 0.61 0.63 0.64 0.67 0.69 0.65 0.62 0.67 0.74 0.84 0.97 1.11 1.21 1.31 1.61 1.44 1.22 1.21 1.30 1.35 1.44 1.48 1.39
1.09 0.92 0.82 0.76 0.70 0.69 0.70 0.69 0.67 0.68 0.65 0.61 0.60 0.61 0.65 0.62 0.54 0.47 0.43 0.50 0.57 0.58 0.56 0.56 0.57 0.60 0.65 0.77 0.91 1.12 1.24 1.36 1.30 1.43 1.59 1.53 1.37 1.27 1.17 1.23 1.45 1.50 1.46
0.85 0.73 0.71 0.71 0.65 0.60 0.59 0.60 0.60 0.63 0.63 0.58 0.54 0.57 0.60 0.58 0.45 0.38 0.37 0.45 0.53 0.57 0.60 0.61 0.55 0.51 0.62 0.78 1.02 1.31 1.45 1.52 1.38 1.48 1.73 1.78 1.60 1.56 1.51 1.40 1.51 1.56 1.52
0.71 0.64 0.66 0.63 0.54 0.50 0.55 0.59 0.56 0.54 0.55 0.53 0.52 0.53 0.50 0.41 0.35 0.30 0.31 0.34 0.42 0.52 0.59 0.67 0.65 0.58 0.64 0.85 1.06 1.25 1.41 1.44 1.47 1.54 1.57 1.61 1.68 1.70 1.65 1.57 1.54 1.53 1.51
0.66 0.63 0.65 0.62 0.43 0.39 0.48 0.51 0.50 0.53 0.52 0.48 0.48 0.46 0.40 0.37 0.29 0.25 0.25 0.25 0.26 0.42 0.59 0.64 0.67 0.64 0.68 0.89 1.07 1.31 1.52 1.59 1.56 1.59 1.45 1.38 1.34 1.36 1.42 1.38 1.33 1.28 1.26
0.62 0.63 0.61 0.55 0.45 0.38 0.43 0.46 0.48 0.51 0.48 0.41 0.40 0.39 0.33 0.33 0.28 0.19 0.18 0.18 0.20 0.31 0.47 0.54 0.60 0.64 0.80 1.10 1.27 1.44 1.61 1.71 1.73 1.60 1.41 1.30 1.17 1.09 1.08 1.14 1.14 1.12 1.06
0.63 0.61 0.60 0.55 0.46 0.38 0.39 0.37 0.40 0.43 0.42 0.38 0.38 0.39 0.36 0.34 0.27 0.22 0.23 0.24 0.25 0.32 0.45 0.59 0.70 0.78 0.97 1.28 1.49 1.68 1.73 1.64 1.48 1.40 1.31 1.24 1.09 1.02 1.03 0.96 0.96 1.00 1.02
0.60 0.54 0.51 0.45 0.43 0.41 0.33 0.24 0.24 0.26 0.25 0.29 0.34 0.33 0.30 0.28 0.20 0.21 0.23 0.23 0.25 0.28 0.41 0.61 0.79 0.94 1.15 1.38 1.55 1.61 1.59 1.48 1.37 1.18 1.11 1.15 1.13 1.05 1.01 0.92 0.86 0.88 0.97
0.57 0.54 0.47 0.40 0.39 0.36 0.36 0.28 0.19 0.16 0.15 0.15 0.18 0.18 0.19 0.20 0.19 0.20 0.23 0.24 0.27 0.33 0.43 0.64 0.78 0.89 1.09 1.32 1.46 1.43 1.32 1.24 1.15 1.04 0.99 0.97 0.96 0.93 0.91 0.86 0.77 0.77 0.85
0.46 0.45 0.41 0.38 0.36 0.34 0.35 0.37 0.35 0.22 0.14 0.14 0.14 0.15 0.19 0.21 0.19 0.20 0.23 0.28 0.30 0.36 0.46 0.66 0.78 0.88 1.06 1.21 1.26 1.24 1.20 1.10 1.01 0.96 0.93 0.85 0.79 0.77 0.73 0.70 0.68 0.71 0.70
0.28 0.26 0.28 0.32 0.32 0.33 0.31 0.30 0.30 0.31 0.31 0.28 0.21 0.18 0.16 0.16 0.16 0.17 0.21 0.26 0.32 0.36 0.50 0.68 0.81 0.88 0.96 1.03 1.09 1.14 1.12 1.03 0.93 0.90 0.91 0.85 0.77 0.70 0.64 0.61 0.62 0.58 0.59
0.21 0.23 0.22 0.25 0.29 0.28 0.26 0.26 0.26 0.29 0.31 0.31 0.28 0.23 0.19 0.19 0.20 0.24 0.27 0.31 0.39 0.47 0.57 0.68 0.76 0.82 0.84 0.85 0.90 0.96 0.97 0.94 0.87 0.83 0.82 0.80 0.74 0.66 0.58 0.52 0.48 0.38 0.41
0.16 0.13 0.14 0.16 0.19 0.21 0.19 0.20 0.21 0.23 0.27 0.30 0.30 0.25 0.23 0.30 0.34 0.36 0.34 0.32 0.37 0.46 0.55 0.62 0.68 0.73 0.71 0.71 0.72 0.75 0.78 0.78 0.75 0.72 0.71 0.69 0.62 0.54 0.50 0.45 0.43 0.41 0.41
0.11 0.08 0.08 0.09 0.11 0.12 0.12 0.12 0.15 0.18 0.23 0.27 0.25 0.22 0.28 0.34 0.39 0.40 0.40 0.39 0.42 0.46 0.50 0.53 0.55 0.58 0.57 0.57 0.57 0.58 0.62 0.65 0.66 0.67 0.64 0.60 0.52 0.46 0.42 0.39 0.35 0.32 0.32
0.07 0.07 0.08 0.09 0.08 0.08 0.08 0.10 0.13 0.15 0.17 0.21 0.22 0.22 0.29 0.33 0.37 0.41 0.45 0.47 0.47 0.47 0.46 0.45 0.46 0.47 0.47 0.47 0.46 0.47 0.50 0.53 0.59 0.64 0.64 0.59 0.48 0.41 0.35 0.32 0.32 0.31 0.31
0.06 0.06 0.09 0.10 0.08 0.08 0.09 0.11 0.12 0.12 0.13 0.15 0.17 0.21 0.27 0.35 0.41 0.45 0.47 0.47 0.47 0.45 0.41 0.39 0.41 0.43 0.42 0.39 0.39 0.42 0.46 0.49 0.55 0.62 0.67 0.61 0.49 0.41 0.34 0.32 0.33 0.34 0.32
0.06 0.07 0.10 0.11 0.08 0.08 0.08 0.09 0.09 0.10 0.12 0.13 0.16 0.20 0.25 0.32 0.40 0.47 0.51 0.49 0.48 0.47 0.44 0.42 0.41 0.41 0.37 0.33 0.31 0.30 0.32 0.37 0.46 0.54 0.58 0.57 0.46 0.36 0.30 0.29 0.29 0.30 0.30
0.09 0.09 0.08 0.09 0.09 0.09 0.08 0.08 0.09 0.10 0.10 0.10 0.12 0.14 0.17 0.22 0.29 0.38 0.46 0.50 0.53 0.53 0.50 0.47 0.46 0.44 0.38 0.30 0.25 0.22 0.28 0.35 0.42 0.47 0.51 0.48 0.38 0.31 0.29 0.28 0.27 0.26 0.27
0.08 0.09 0.08 0.07 0.07 0.08 0.09 0.09 0.08 0.08 0.08 0.08 0.09 0.10 0.12 0.15 0.20 0.26 0.33 0.39 0.45 0.52 0.56 0.58 0.55 0.44 0.35 0.29 0.26 0.27 0.28 0.29 0.31 0.35 0.39 0.38 0.31 0.29 0.29 0.28 0.23 0.23 0.25